1513029600.65,16726,5.0,71842.3,-2.89,-3.67,-3.71,0,*50
1513029601.89,16727,5.0,71866.5,-2.87,-3.67,-3.71,0,*5F
1513029603.13,16728,5.0,71864.0,-2.87,-3.67,-3.71,0,*50
1513029604.4,16729,5.0,71876.5,-2.89,-3.63,-3.67,0,*5C
1513029605.64,16730,5.0,71884.5,-2.87,-3.63,-3.63,0,*5E
1513029606.91,16731,5.0,71872.3,-2.85,-3.59,-3.63,0,*54
1513029608.15,16732,5.0,71854.8,-2.87,-3.67,-3.67,0,*5C
1513029609.42,16733,5.0,71854.3,-2.85,-3.59,-3.63,0,*56
1513029610.69,16734,5.0,71832.3,-2.85,-3.63,-3.63,0,*58
1513029611.96,16735,5.0,71840.0,-2.85,-3.63,-3.63,0,*59
1513029613.23,16736,5.0,71838.8,-2.85,-3.67,-3.67,0,*5A
1513029614.48,16737,5.0,71838.3,-2.85,-3.67,-3.75,0,*58
1513029615.75,16738,5.0,71878.5,-2.85,-3.67,-3.67,0,*54
1513029617.02,16739,5.0,71822.0,-2.85,-3.63,-3.67,0,*51
1513029618.29,16740,5.0,71826.3,-2.85,-3.63,-3.67,0,*5F
1513029619.55,16741,5.0,71838.3,-2.85,-3.63,-3.67,0,*5E
1513029620.82,16742,5.0,71944.0,-2.85,-3.67,-3.67,0,*59
1513029622.09,16743,5.0,71908.3,-2.85,-3.67,-3.67,0,*58
1513029623.36,16744,5.0,71928.0,-2.85,-3.63,-3.67,0,*5B
1513029624.63,16745,5.0,71962.8,-2.85,-3.63,-3.67,0,*5A
1513029625.9,16746,5.0,71950.8,-2.85,-3.63,-3.67,0,*59
1513029627.17,16747,5.0,71942.0,-2.85,-3.63,-3.67,0,*58
1513029628.44,16748,5.0,71902.5,-2.85,-3.63,-3.67,0,*57
1513029629.68,16749,5.0,71868.3,-2.83,-3.63,-3.67,0,*50
1513029630.93,16750,5.0,71850.8,-2.85,-3.75,-3.67,0,*59
1513029632.19,16751,5.0,71840.5,-2.85,-3.67,-3.67,0,*5B
1513029633.46,16752,5.0,71820.3,-2.85,-3.67,-3.67,0,*58
1513029634.73,16753,5.0,71834.8,-2.85,-3.67,-3.63,0,*5D
1513029635.97,16754,5.0,71790.3,-2.83,-3.63,-3.63,0,*58
1513029637.24,16755,5.0,71788.8,-2.85,-3.63,-3.63,0,*5F
1513029638.51,16756,5.0,71780.5,-2.85,-3.63,-3.67,0,*58
1513029639.76,16757,5.0,71802.3,-2.85,-3.67,-3.75,0,*5E
1513029641.03,16758,5.0,71822.8,-2.85,-3.67,-3.63,0,*56
1513029642.29,16759,5.0,71834.3,-2.85,-3.67,-3.63,0,*57
1513029643.53,16760,5.0,71852.0,-2.83,-3.59,-3.63,0,*56
1513029644.8,16761,5.0,71858.0,-2.85,-3.63,-3.63,0,*58
1513029646.08,16762,5.0,71852.3,-2.85,-3.59,-3.59,0,*5B
1513029647.32,16763,5.0,71830.0,-2.83,-3.59,-3.51,0,*54
1513029648.57,16764,5.0,71802.5,-2.83,-3.59,-3.59,0,*5B
1513029649.81,16765,5.0,71844.5,-2.83,-3.63,-3.63,0,*5A
1513029651.08,16766,5.0,71828.3,-2.85,-3.63,-3.67,0,*5B
1513029652.32,16767,5.0,71802.0,-2.83,-3.63,-3.67,0,*5C
1513029653.54,16768,5.0,71686.5,-2.83,-3.67,-3.75,0,*54
1513029654.74,16769,5.0,71738.3,-2.83,-3.75,-3.75,0,*56
1513029655.98,16770,5.0,71844.8,-2.85,-3.75,-3.75,0,*58
1513029657.18,16771,5.0,71740.0,-2.83,-3.79,-3.87,0,*5E
1513029658.41,16772,5.0,71766.8,-2.85,-3.79,-3.87,0,*5B
1513029659.63,16773,5.0,71806.0,-2.85,-3.87,-3.87,0,*5B
1513029660.83,16774,5.0,71834.0,-2.83,-3.87,-3.79,0,*5B
1513029662.03,16775,5.0,71844.0,-2.83,-3.79,-3.87,0,*5A
1513029663.23,16776,5.0,71860.5,-2.83,-3.75,-3.75,0,*58
1513029664.5,16777,5.0,71838.0,-2.85,-3.67,-3.67,0,*5F
1513029665.77,16778,5.0,71874.0,-2.85,-3.67,-3.67,0,*50
1513029667.01,16779,5.0,71862.8,-2.83,-3.67,-3.67,0,*57
1513029668.23,16780,5.0,71812.5,-2.83,-3.67,-3.75,0,*52
1513029669.45,16781,5.0,71814.5,-2.83,-3.75,-3.67,0,*53
1513029670.68,16782,5.0,71826.0,-2.85,-3.79,-3.75,0,*59
1513029671.93,16783,5.0,71734.0,-2.85,-3.67,-3.79,0,*5B
1513029673.17,16784,5.0,71716.5,-2.85,-3.79,-3.79,0,*53
1513029674.39,16785,5.0,71664.3,-2.85,-3.87,-3.87,0,*52
1513029675.62,16786,5.0,71658.3,-2.85,-3.75,-3.79,0,*5D
1513029676.86,16787,5.0,71706.3,-2.85,-3.75,-3.79,0,*5C
1513029678.09,16788,5.0,71752.3,-2.85,-3.75,-3.87,0,*52
1513029679.34,16789,5.0,71792.0,-2.85,-3.75,-3.67,0,*5D
1513029680.57,16790,5.0,71834.8,-2.85,-3.75,-3.75,0,*56
1513029681.84,16791,5.0,71736.3,-2.85,-3.67,-3.67,0,*57
1513029683.04,16792,5.0,71798.3,-2.83,-3.79,-3.79,0,*52
1513029684.28,16793,5.0,71812.0,-2.85,-3.79,-3.79,0,*55
1513029685.54,16794,5.0,71836.3,-2.85,-3.67,-3.67,0,*52
1513029686.78,16795,5.0,71848.3,-2.85,-3.75,-3.75,0,*53
1513029688.01,16796,5.0,71864.0,-2.85,-3.75,-3.75,0,*50
1513029689.25,16797,5.0,71796.5,-2.85,-3.75,-3.75,0,*51
1513029690.5,16798,5.0,71822.0,-2.85,-3.67,-3.79,0,*51
1513029691.73,16799,5.0,71860.0,-2.85,-3.75,-3.79,0,*53
1513029692.97,16800,5.0,71892.0,-2.85,-3.75,-3.79,0,*5C
1513029694.2,16801,5.0,71896.5,-2.85,-3.75,-3.75,0,*51
1513029695.47,16802,5.0,71888.5,-2.85,-3.67,-3.67,0,*52
1513029696.7,16803,5.0,71864.5,-2.85,-3.75,-3.75,0,*53
1513029697.94,16804,5.0,71836.5,-2.85,-3.75,-3.75,0,*54
1513029699.17,16805,5.0,71862.3,-2.85,-3.79,-3.79,0,*55
1513029700.38,16806,5.0,71854.8,-2.83,-3.75,-3.79,0,*5C
1513029701.61,16807,5.0,71854.3,-2.85,-3.75,-3.75,0,*57
1513029702.88,16808,5.0,71896.3,-2.85,-3.67,-3.67,0,*58
1513029704.14,16809,5.0,71894.5,-2.85,-3.67,-3.67,0,*59
1513029705.41,16810,5.0,71908.5,-2.85,-3.63,-3.63,0,*51
1513029706.68,16811,5.0,71902.8,-2.85,-3.63,-3.63,0,*50
1513029707.94,16812,5.0,71936.0,-2.85,-3.63,-3.75,0,*54
1513029709.2,16813,5.0,71930.0,-2.85,-3.67,-3.67,0,*52
1513029710.44,16814,5.0,71930.5,-2.87,-3.67,-3.67,0,*57
1513029711.71,16815,5.0,71920.8,-2.85,-3.59,-3.63,0,*5D
1513029712.98,16816,5.0,71912.5,-2.85,-3.59,-3.63,0,*5E
1513029714.26,16817,5.0,71900.5,-2.85,-3.63,-3.63,0,*56
1513029715.51,16818,5.0,71892.5,-2.85,-3.63,-3.75,0,*5E
1513029716.77,16819,5.0,71902.0,-2.85,-3.67,-3.67,0,*58
1513029718.05,16820,5.0,71926.5,-2.85,-3.63,-3.63,0,*52
1513029719.32,16821,5.0,71922.3,-2.85,-3.59,-3.63,0,*5A
1513029720.56,16822,5.0,71926.0,-2.83,-3.63,-3.59,0,*5F
1513029721.83,16823,5.0,71934.8,-2.85,-3.63,-3.63,0,*51
1513029723.07,16824,5.0,71950.0,-2.83,-3.63,-3.63,0,*50
1513029724.31,16825,5.0,71916.5,-2.83,-3.67,-3.63,0,*55
1513029725.58,16826,5.0,71860.3,-2.85,-3.67,-3.63,0,*50
1513029726.85,16827,5.0,71894.3,-2.85,-3.63,-3.63,0,*55
1513029728.12,16828,5.0,71876.8,-2.85,-3.63,-3.63,0,*5A
1513029729.36,16829,5.0,71778.5,-2.83,-3.63,-3.63,0,*5D
1513029730.62,16830,5.0,71764.5,-2.85,-3.67,-3.63,0,*57
1513029731.86,16831,5.0,71774.3,-2.85,-3.75,-3.75,0,*52
1513029733.08,16832,5.0,71804.0,-2.83,-3.67,-3.75,0,*54
1513029734.34,16833,5.0,71818.0,-2.85,-3.67,-3.67,0,*50
1513029735.61,16834,5.0,71810.0,-2.85,-3.67,-3.67,0,*57
1513029736.88,16835,5.0,71786.0,-2.85,-3.67,-3.67,0,*56
1513029738.08,16836,5.0,71830.5,-2.83,-3.75,-3.75,0,*53
1513029739.35,16837,5.0,71842.8,-2.85,-3.67,-3.67,0,*54
1513029740.62,16838,5.0,71826.3,-2.85,-3.67,-3.67,0,*5B
1513029741.88,16839,5.0,71672.5,-2.85,-3.67,-3.67,0,*5A
1513029743.12,16840,5.0,71806.0,-2.83,-3.63,-3.67,0,*56
1513029744.39,16841,5.0,71816.3,-2.85,-3.67,-3.67,0,*55
1513029745.62,16842,5.0,71784.8,-2.85,-3.75,-3.79,0,*5A
1513029746.85,16843,5.0,71806.3,-2.85,-3.79,-3.87,0,*56
1513029748.1,16844,5.0,71790.5,-2.85,-3.67,-3.75,0,*53
1513029749.34,16845,5.0,71772.5,-2.85,-3.75,-3.75,0,*51
1513029750.56,16846,5.0,71742.3,-2.83,-3.67,-3.75,0,*57
1513029751.8,16847,5.0,71768.5,-2.85,-3.75,-3.75,0,*53
1513029753.06,16848,5.0,71762.0,-2.85,-3.67,-3.67,0,*5C
1513029754.31,16849,5.0,71758.3,-2.85,-3.75,-3.67,0,*5E
1513029755.55,16850,5.0,71720.3,-2.85,-3.79,-3.75,0,*59
1513029756.78,16851,5.0,71738.8,-2.85,-3.79,-3.79,0,*54
1513029758.01,16852,5.0,71772.5,-2.85,-3.79,-3.79,0,*57
1513029759.24,16853,5.0,71694.5,-2.85,-3.87,-3.87,0,*56
1513029760.47,16854,5.0,71698.5,-2.85,-3.79,-3.79,0,*51
1513029761.68,16855,5.0,71728.8,-2.87,-3.83,-3.91,0,*51
1513029762.89,16856,5.0,71780.3,-2.87,-3.91,-3.91,0,*51
1513029764.12,16857,5.0,71822.5,-2.85,-3.79,-3.79,0,*52
1513029765.35,16858,5.0,71828.0,-2.87,-3.79,-3.71,0,*57
1513029766.56,16859,5.0,71796.8,-2.87,-3.79,-3.79,0,*5E
1513029767.79,16860,5.0,71820.0,-2.85,-3.79,-3.79,0,*56
1513029769.04,16861,5.0,71798.0,-2.85,-3.67,-3.75,0,*54
1513029770.24,16862,5.0,71802.5,-2.87,-3.79,-3.83,0,*53
1513029771.45,16863,5.0,71710.3,-2.87,-3.79,-3.83,0,*52
1513029772.68,16864,5.0,71744.8,-2.85,-3.79,-3.87,0,*53
1513029773.88,16865,5.0,71726.8,-2.87,-3.83,-3.83,0,*51
1513029775.09,16866,5.0,71798.5,-2.87,-3.79,-3.79,0,*52
1513029776.34,16867,5.0,71780.0,-2.85,-3.75,-3.67,0,*52
1513029777.61,16868,5.0,71798.3,-2.85,-3.67,-3.67,0,*5E
1513029778.83,16869,5.0,71786.5,-2.87,-3.71,-3.79,0,*55
1513029780.07,16870,5.0,71788.3,-2.87,-3.71,-3.71,0,*55
1513029781.28,16871,5.0,71786.8,-2.87,-3.79,-3.83,0,*51
1513029782.49,16872,5.0,71792.8,-2.87,-3.79,-3.91,0,*51
1513029783.7,16873,5.0,71792.8,-2.87,-3.91,-3.91,0,*56
1513029784.9,16874,5.0,71814.5,-2.87,-3.83,-3.91,0,*52
1513029786.14,16875,5.0,71826.8,-2.85,-3.75,-3.75,0,*52
1513029787.41,16876,5.0,71834.5,-2.85,-3.67,-3.67,0,*51
1513029788.67,16877,5.0,71842.8,-2.85,-3.67,-3.67,0,*50
1513029789.91,16878,5.0,71848.5,-2.85,-3.75,-3.75,0,*5F
1513029791.18,16879,5.0,71852.8,-2.85,-3.67,-3.67,0,*5E
1513029792.44,16880,5.0,71846.3,-2.85,-3.63,-3.67,0,*5C
1513029793.69,16881,5.0,71786.8,-2.87,-3.67,-3.67,0,*5B
1513029794.96,16882,5.0,71764.5,-2.85,-3.63,-3.63,0,*5A
1513029796.23,16883,5.0,71776.0,-2.85,-3.63,-3.63,0,*5B
1513029797.49,16884,5.0,71806.3,-2.85,-3.67,-3.67,0,*5C
1513029798.7,16885,5.0,71838.0,-2.87,-3.79,-3.83,0,*5A
1513029799.9,16886,5.0,71846.0,-2.87,-3.79,-3.83,0,*59
1513029801.14,16887,5.0,71852.8,-2.87,-3.71,-3.71,0,*5D
1513029802.39,16888,5.0,71894.5,-2.85,-3.75,-3.67,0,*53
1513029803.66,16889,5.0,71894.3,-2.85,-3.67,-3.67,0,*51
1513029804.9,16890,5.0,71818.0,-2.87,-3.67,-3.71,0,*5C
1513029806.15,16891,5.0,71822.0,-2.85,-3.67,-3.75,0,*5B
1513029807.4,16892,5.0,71768.8,-2.85,-3.75,-3.67,0,*58
1513029808.62,16893,5.0,71766.8,-2.87,-3.71,-3.79,0,*50
1513029809.83,16894,5.0,71736.5,-2.87,-3.79,-3.83,0,*5A
1513029811.04,16895,5.0,71748.8,-2.87,-3.91,-3.95,0,*5A
1513029812.23,16896,5.0,71726.3,-2.87,-4.09,-4.09,0,*5D
1513029813.44,16897,5.0,71764.8,-2.87,-3.95,-4.09,0,*5E
1513029814.64,16898,5.0,71836.3,-2.87,-3.95,-4.05,0,*5D
1513029815.85,16899,5.0,71852.3,-2.87,-3.79,-3.91,0,*54
1513029817.1,16900,5.0,71890.0,-2.89,-3.79,-3.71,0,*55
1513029818.35,16901,5.0,71850.0,-2.85,-3.67,-3.75,0,*53
1513029819.59,16902,5.0,71878.0,-2.87,-3.71,-3.71,0,*51
1513029820.82,16903,5.0,71852.0,-2.89,-3.79,-3.79,0,*5E
1513029822.06,16904,5.0,71796.0,-2.87,-3.71,-3.71,0,*57
1513029823.28,16905,5.0,71792.3,-2.87,-3.79,-3.71,0,*5E
1513029824.51,16906,5.0,71780.3,-2.89,-3.79,-3.79,0,*5B
1513029825.76,16907,5.0,71680.5,-2.89,-3.79,-3.71,0,*52
1513029827.03,16908,5.0,71716.5,-2.85,-3.67,-3.67,0,*59
1513029828.26,16909,5.0,71714.5,-2.89,-3.91,-3.91,0,*54
1513029829.47,16910,5.0,71786.3,-2.87,-3.91,-3.91,0,*52
1513029830.68,16911,5.0,71742.5,-2.87,-3.91,-3.91,0,*53
1513029831.91,16912,5.0,71742.3,-2.89,-3.91,-3.95,0,*5A
1513029833.11,16913,5.0,71784.5,-2.87,-3.91,-3.95,0,*55
1513029834.32,16914,5.0,71840.0,-2.87,-3.91,-4.05,0,*5C
1513029835.54,16915,5.0,71866.8,-2.89,-4.09,-4.17,0,*56
1513029836.73,16916,5.0,71824.8,-2.87,-4.09,-4.09,0,*54
1513029837.95,16917,5.0,71846.3,-2.85,-4.05,-4.17,0,*54
1513029839.18,16918,5.0,71856.5,-2.89,-4.09,-4.21,0,*5E
1513029840.4,16919,5.0,71858.8,-2.89,-4.09,-4.09,0,*55
1513029841.62,16920,5.0,71882.8,-2.89,-4.09,-4.09,0,*5F
1513029842.84,16921,5.0,71876.0,-2.89,-4.05,-4.05,0,*5E
1513029844.06,16922,5.0,71822.5,-2.89,-4.05,-4.05,0,*5D
1513029845.29,16923,5.0,71836.3,-2.89,-3.95,-4.09,0,*5E
1513029846.52,16924,5.0,71830.8,-2.89,-3.95,-3.95,0,*5B
1513029847.74,16925,5.0,71890.8,-2.89,-3.95,-4.05,0,*54
1513029848.97,16926,5.0,71830.3,-2.89,-3.95,-3.95,0,*59
1513029850.2,16927,5.0,71874.3,-2.89,-3.83,-3.91,0,*5B
1513029851.43,16928,5.0,71880.8,-2.89,-3.79,-3.83,0,*52
1513029852.69,16929,5.0,71812.0,-2.89,-3.71,-3.71,0,*56
1513029853.91,16930,5.0,71774.5,-2.87,-3.71,-3.79,0,*58
1513029855.16,16931,5.0,71844.8,-2.89,-3.79,-3.71,0,*57
1513029856.41,16932,5.0,71852.8,-2.89,-3.71,-3.79,0,*54
1513029857.67,16933,5.0,71886.3,-2.89,-3.71,-3.71,0,*5D
1513029858.93,16934,5.0,71910.8,-2.89,-3.67,-3.67,0,*5A
1513029860.2,16935,5.0,71944.0,-2.89,-3.67,-3.67,0,*5B
1513029861.44,16936,5.0,71922.3,-2.87,-3.63,-3.67,0,*52
1513029862.68,16937,5.0,71904.0,-2.87,-3.63,-3.67,0,*53
1513029863.93,16938,5.0,71910.5,-2.87,-3.63,-3.67,0,*5C
1513029865.19,16939,5.0,71876.5,-2.89,-3.67,-3.63,0,*53
1513029866.46,16940,5.0,71868.8,-2.89,-3.67,-3.63,0,*5D
1513029867.72,16941,5.0,71850.3,-2.89,-3.67,-3.71,0,*5F
1513029868.97,16942,5.0,71832.5,-2.89,-3.67,-3.79,0,*54
1513029870.23,16943,5.0,71830.5,-2.89,-3.67,-3.71,0,*5D
1513029871.49,16944,5.0,71780.3,-2.89,-3.67,-3.71,0,*5A
1513029872.73,16945,5.0,71802.3,-2.87,-3.67,-3.71,0,*55
1513029873.98,16946,5.0,71788.8,-2.87,-3.67,-3.71,0,*56
1513029875.21,16947,5.0,71830.8,-2.87,-3.71,-3.71,0,*50
1513029876.45,16948,5.0,71790.5,-2.87,-3.71,-3.71,0,*5F
1513029877.7,16949,5.0,71824.8,-2.87,-3.71,-3.71,0,*5E
1513029878.94,16950,5.0,71858.3,-2.87,-3.71,-3.71,0,*56
1513029880.18,16951,5.0,71824.3,-2.87,-3.71,-3.71,0,*57
1513029881.41,16952,5.0,71820.0,-2.87,-3.71,-3.71,0,*54
1513029882.64,16953,5.0,71830.5,-2.87,-3.71,-3.79,0,*5D
1513029883.87,16954,5.0,71748.0,-2.85,-3.75,-3.79,0,*5C
1513029885.08,16955,5.0,71756.5,-2.87,-3.91,-3.91,0,*53
1513029886.31,16956,5.0,71762.3,-2.89,-3.91,-3.83,0,*5D
1513029887.54,16957,5.0,71812.0,-2.89,-3.91,-3.79,0,*59
1513029888.75,16958,5.0,71802.3,-2.87,-3.79,-3.79,0,*5E
1513029889.97,16959,5.0,71816.3,-2.87,-3.71,-3.79,0,*57
1513029891.18,16960,5.0,71808.8,-2.87,-3.79,-3.79,0,*55
1513029892.41,16961,5.0,71804.8,-2.89,-3.91,-3.83,0,*59
1513029893.61,16962,5.0,71774.3,-2.87,-3.83,-3.83,0,*57
1513029894.82,16963,5.0,71812.5,-2.87,-3.91,-3.91,0,*56
1513029896.05,16964,5.0,71832.8,-2.89,-3.95,-4.05,0,*51
1513029897.25,16965,5.0,71844.3,-2.87,-3.95,-4.05,0,*5E
1513029898.49,16966,5.0,71804.5,-2.89,-3.83,-3.91,0,*5E
1513029899.72,16967,5.0,71800.5,-2.89,-3.83,-3.91,0,*5F
1513029900.95,16968,5.0,71800.0,-2.89,-3.79,-3.83,0,*56
1513029902.18,16969,5.0,71868.0,-2.87,-3.71,-3.71,0,*5C
1513029903.39,16970,5.0,71852.0,-2.87,-3.75,-3.79,0,*58
1513029904.6,16971,5.0,71836.0,-2.87,-3.79,-3.83,0,*50
1513029905.81,16972,5.0,71830.8,-2.87,-3.79,-3.91,0,*50
1513029907.01,16973,5.0,71830.3,-2.87,-3.83,-3.95,0,*50
1513029908.24,16974,5.0,71858.3,-2.89,-3.91,-4.09,0,*58
1513029909.45,16975,5.0,71854.0,-2.87,-3.91,-3.95,0,*55
1513029910.65,16976,5.0,71872.8,-2.87,-3.95,-4.05,0,*5C
1513029911.85,16977,5.0,71866.3,-2.87,-3.95,-4.05,0,*5D
1513029913.06,16978,5.0,71872.3,-2.87,-3.95,-4.09,0,*5E
1513029914.26,16979,5.0,71858.0,-2.87,-4.05,-4.09,0,*51
1513029915.45,16980,5.0,71894.0,-2.87,-4.09,-4.17,0,*54
1513029916.65,16981,5.0,71908.8,-2.87,-4.05,-4.17,0,*59
1513029917.86,16982,5.0,71880.8,-2.89,-4.05,-4.17,0,*54
1513029919.08,16983,5.0,71892.0,-2.89,-4.09,-4.17,0,*59
1513029920.31,16984,5.0,71882.5,-2.89,-4.17,-4.21,0,*54
1513029921.53,16985,5.0,71904.5,-2.89,-4.17,-4.21,0,*55
1513029922.76,16986,5.0,71920.0,-2.89,-4.09,-4.21,0,*59
1513029923.96,16987,5.0,71906.3,-2.87,-4.09,-4.17,0,*53
1513029925.18,16988,5.0,71900.5,-2.89,-4.09,-4.09,0,*5D
1513029926.37,16989,5.0,71906.3,-2.87,-4.09,-4.09,0,*52
1513029927.59,16990,5.0,71914.5,-2.89,-4.05,-4.17,0,*57
1513029928.81,16991,5.0,71898.5,-2.89,-4.05,-4.05,0,*55
1513029930.04,16992,5.0,71894.8,-2.89,-3.95,-4.09,0,*54
1513029931.26,16993,5.0,71870.3,-2.89,-4.05,-4.17,0,*54
1513029932.45,16994,5.0,71860.8,-2.87,-4.05,-4.09,0,*52
1513029933.68,16995,5.0,71856.8,-2.89,-4.09,-4.21,0,*5B
1513029934.89,16996,5.0,71792.8,-2.91,-4.21,-4.25,0,*5F
1513029936.11,16997,5.0,71808.0,-2.89,-4.29,-4.33,0,*58
1513029937.34,16998,5.0,71806.8,-2.89,-4.21,-4.33,0,*5F
1513029938.57,16999,5.0,71826.8,-2.89,-4.09,-4.21,0,*57
1513029939.77,17000,5.0,71820.3,-2.91,-4.21,-4.33,0,*5F
1513029940.98,17001,5.0,71824.3,-2.91,-4.13,-4.25,0,*58
1513029942.19,17002,5.0,71866.3,-2.91,-4.21,-4.33,0,*5D
1513029943.38,17003,5.0,71866.0,-2.91,-4.13,-4.33,0,*5D
1513029944.59,17004,5.06,71866.3,-2.91,-4.21,-4.45,0,*5A
1513029945.8,17005,5.0,71868.0,-2.91,-4.25,-4.37,0,*5A
1513029947.0,17006,5.0,71864.0,-2.95,-4.25,-4.45,0,*58
1513029948.2,17007,5.0,71878.5,-2.91,-4.25,-4.37,0,*58
1513029949.41,17008,5.0,71884.3,-2.91,-4.21,-4.37,0,*53
1513029950.61,17009,5.0,71898.0,-2.95,-4.13,-4.25,0,*54
1513029951.82,17010,5.0,71884.5,-2.95,-4.13,-4.25,0,*5C
1513029953.02,17011,5.0,71862.0,-2.95,-4.13,-4.21,0,*59
1513029954.22,17012,5.0,71878.3,-2.95,-4.09,-4.21,0,*51
1513029955.43,17013,5.0,71820.3,-2.95,-4.09,-4.21,0,*50
1513029956.63,17014,5.0,71842.3,-2.95,-4.09,-4.33,0,*54
1513029957.83,17015,5.0,71838.0,-2.95,-4.09,-4.21,0,*56
1513029959.03,17016,5.0,71792.5,-2.95,-4.09,-4.21,0,*55
1513029960.24,17017,5.0,71798.0,-2.95,-4.09,-4.13,0,*55
1513029961.43,17018,5.0,71812.8,-2.95,-4.09,-4.13,0,*5A
1513029962.63,17019,5.0,71822.8,-2.95,-4.09,-4.13,0,*5B
1513029963.86,17020,5.0,71826.5,-2.95,-4.01,-4.09,0,*52
1513029965.09,17021,5.0,71820.8,-2.95,-3.95,-4.01,0,*51
1513029966.29,17022,5.0,71806.5,-2.95,-3.87,-3.83,0,*5C
1513029967.5,17023,5.0,71788.8,-2.91,-3.75,-3.83,0,*54
1513029968.7,17024,5.0,71784.0,-2.95,-3.83,-3.95,0,*59
1513029969.9,17025,5.0,71718.3,-2.95,-3.87,-3.87,0,*5F
1513029971.1,17026,5.0,71710.8,-2.95,-3.87,-3.87,0,*5C
1513029972.3,17027,5.0,71774.0,-2.95,-3.87,-3.87,0,*5D
1513029973.5,17028,5.0,71816.8,-2.95,-3.87,-3.83,0,*56
1513029974.7,17029,5.0,71832.0,-2.95,-3.75,-3.83,0,*5A
1513029975.91,17030,5.0,71808.8,-2.95,-3.75,-3.95,0,*55
1513029977.11,17031,5.0,71694.5,-2.95,-3.83,-3.95,0,*5D
1513029978.31,17032,5.0,71712.5,-2.95,-3.87,-3.95,0,*5A
1513029979.52,17033,5.0,71784.8,-2.95,-3.83,-3.87,0,*5C
1513029980.72,17034,5.0,71810.5,-2.95,-3.95,-3.95,0,*5F
1513029981.92,17035,5.0,71856.8,-2.95,-3.95,-4.13,0,*57
1513029983.13,17036,5.0,71840.0,-2.95,-3.95,-4.09,0,*5F
1513029984.33,17037,5.0,71840.8,-2.95,-3.95,-4.13,0,*55
1513029985.57,17038,5.0,71840.0,-2.95,-4.01,-4.13,0,*50
1513029986.77,17039,5.0,71824.8,-2.95,-4.09,-4.13,0,*59
1513029988.0,17040,5.0,71834.3,-2.95,-4.01,-4.13,0,*5F
1513029989.2,17041,5.0,71794.5,-2.95,-3.95,-4.09,0,*5F
1513029990.43,17042,5.0,71834.5,-2.95,-4.01,-4.13,0,*5D
1513029991.64,17043,5.0,71804.8,-2.95,-4.09,-4.21,0,*55
1513029992.85,17044,5.0,71802.8,-2.95,-4.21,-4.25,0,*5C
1513029994.05,17045,5.0,71836.8,-2.91,-4.13,-4.25,0,*58
1513029995.25,17046,5.0,71808.0,-2.95,-4.21,-4.33,0,*59
1513029996.46,17047,5.0,71820.8,-2.95,-4.21,-4.33,0,*58
1513029997.67,17048,5.0,71796.0,-2.95,-4.21,-4.25,0,*50
1513029998.87,17049,5.0,71850.5,-2.91,-4.13,-4.25,0,*54
1513030000.07,17050,5.0,71856.8,-2.91,-4.13,-4.25,0,*5C
1513030001.27,17051,5.0,71878.0,-2.95,-4.13,-4.25,0,*59
1513030002.48,17052,5.0,71884.5,-2.91,-4.13,-4.25,0,*5E
1513030003.68,17053,5.0,71878.3,-2.95,-4.09,-4.13,0,*55
1513030004.88,17054,5.0,71874.8,-2.95,-4.09,-4.13,0,*52
1513030006.11,17055,5.0,71868.0,-2.95,-3.95,-4.01,0,*52
1513030007.33,17056,5.0,71854.0,-2.95,-3.87,-4.01,0,*52
1513030008.54,17057,5.0,71830.5,-2.95,-3.95,-4.13,0,*53
1513030009.77,17058,5.0,71836.3,-2.95,-4.01,-4.21,0,*57
1513030011.0,17059,5.0,71876.3,-2.95,-3.87,-4.01,0,*5D
1513030012.2,17060,5.0,71890.3,-2.95,-3.87,-3.87,0,*5E
1513030013.4,17061,5.0,71890.8,-2.95,-3.75,-3.87,0,*52
1513030014.61,17062,5.0,71888.0,-2.95,-3.75,-3.95,0,*52
1513030015.81,17063,5.0,71874.5,-2.95,-3.83,-3.87,0,*59
1513030017.02,17064,5.0,71908.5,-2.95,-3.83,-3.87,0,*5E
1513030018.22,17065,5.0,71900.3,-2.95,-3.83,-3.75,0,*52
1513030019.43,17066,5.0,71924.0,-2.95,-3.75,-3.75,0,*58
1513030020.64,17067,5.0,71908.5,-2.95,-3.75,-3.75,0,*59
1513030021.88,17068,5.0,71882.3,-2.95,-3.67,-3.67,0,*56
1513030023.12,17069,5.0,71886.3,-2.95,-3.67,-3.67,0,*57
1513030024.37,17070,5.0,71874.3,-2.95,-3.67,-3.59,0,*52
1513030025.62,17071,5.0,71900.3,-2.95,-3.67,-3.59,0,*53
1513030026.87,17072,5.0,71880.8,-2.91,-3.67,-3.59,0,*54
1513030028.11,17073,5.0,71874.0,-2.95,-3.67,-3.59,0,*51
1513030029.35,17074,5.0,71878.3,-2.95,-3.67,-3.67,0,*5B
1513030030.6,17075,5.0,71846.5,-2.91,-3.67,-3.59,0,*53
1513030031.84,17076,5.0,71846.8,-2.95,-3.67,-3.67,0,*59
1513030033.09,17077,5.0,71894.0,-2.95,-3.67,-3.71,0,*5F
1513030034.34,17078,5.0,71888.5,-2.95,-3.59,-3.59,0,*57
1513030035.59,17079,5.0,71882.8,-2.91,-3.59,-3.59,0,*52
1513030036.83,17080,5.0,71890.3,-2.91,-3.59,-3.55,0,*58
1513030038.1,17081,5.0,71886.0,-2.89,-3.55,-3.55,0,*5C
1513030039.36,17082,5.0,71862.3,-2.89,-3.51,-3.55,0,*5B
1513030040.61,17083,5.0,71888.8,-2.91,-3.59,-3.67,0,*5A
1513030041.86,17084,5.0,71888.3,-2.91,-3.59,-3.67,0,*5D
1513030043.1,17085,5.0,71878.8,-2.91,-3.55,-3.59,0,*5D
1513030044.35,17086,5.0,71906.8,-2.91,-3.67,-3.67,0,*52
1513030045.59,17087,5.0,71928.0,-2.91,-3.67,-3.67,0,*53
1513030046.84,17088,5.0,71944.0,-2.91,-3.59,-3.67,0,*51
1513030048.1,17089,5.0,71908.8,-2.89,-3.63,-3.63,0,*54
1513030049.37,17090,5.0,71834.5,-2.89,-3.63,-3.63,0,*5C
1513030050.64,17091,5.0,71820.0,-2.89,-3.63,-3.67,0,*59
1513030051.9,17092,5.0,71836.3,-2.89,-3.63,-3.63,0,*5E
1513030053.17,17093,5.0,71862.0,-2.89,-3.67,-3.63,0,*5B
1513030054.43,17094,5.0,71862.8,-2.89,-3.63,-3.67,0,*5C
1513030055.7,17095,5.0,71874.3,-2.89,-3.63,-3.63,0,*59
1513030056.97,17096,5.0,71872.8,-2.89,-3.63,-3.63,0,*5A
1513030058.23,17097,5.0,71874.8,-2.89,-3.55,-3.55,0,*5B
1513030059.49,17098,5.0,71896.8,-2.89,-3.55,-3.55,0,*54
1513030060.74,17099,5.0,71894.0,-2.87,-3.55,-3.51,0,*5F
1513030061.97,17100,5.0,71890.5,-2.87,-3.55,-3.55,0,*5A
1513030063.24,17101,5.0,71942.0,-2.89,-3.55,-3.51,0,*51
1513030064.48,17102,5.0,71936.8,-2.87,-3.55,-3.51,0,*5C
1513030065.72,17103,5.0,71920.0,-2.87,-3.51,-3.55,0,*5D
1513030066.97,17104,5.0,71806.0,-2.89,-3.39,-3.43,0,*5D
1513030068.21,17105,5.0,71644.3,-2.87,-3.43,-3.43,0,*5F
1513030069.44,17106,5.0,71700.8,-2.87,-3.39,-3.43,0,*51
1513030070.68,17107,5.0,71732.8,-2.87,-3.43,-3.43,0,*5D
1513030071.92,17108,5.0,71758.3,-2.87,-3.55,-3.51,0,*56
1513030073.16,17109,5.0,71832.8,-2.87,-3.51,-3.55,0,*57
1513030074.41,17110,5.0,71836.3,-2.87,-3.51,-3.43,0,*58
1513030075.65,17111,5.0,71902.5,-2.87,-3.43,-3.51,0,*59
1513030076.88,17112,5.0,71906.0,-2.87,-3.39,-3.43,0,*54
1513030078.12,17113,5.0,71896.3,-2.87,-3.43,-3.51,0,*5B
1513030079.34,17114,5.0,71976.8,-2.87,-3.51,-3.39,0,*51
1513030080.59,17115,5.0,71928.5,-2.87,-3.43,-3.51,0,*5D
1513030081.83,17116,5.0,71868.3,-2.85,-3.39,-3.51,0,*51
1513030083.07,17117,5.0,71868.5,-2.83,-3.47,-3.47,0,*58
1513030084.35,17118,5.0,71878.5,-2.85,-3.47,-3.59,0,*5E
1513030085.62,17119,5.0,71872.3,-2.85,-3.51,-3.59,0,*58
1513030086.87,17120,5.0,71818.8,-2.83,-3.63,-3.59,0,*55
1513030088.12,17121,5.0,71850.0,-2.83,-3.59,-3.59,0,*5D
1513030089.39,17122,5.0,71852.3,-2.85,-3.59,-3.63,0,*51
1513030090.66,17123,5.0,71846.0,-2.85,-3.59,-3.59,0,*59
1513030091.93,17124,5.0,71816.3,-2.85,-3.63,-3.63,0,*5E
1513030093.17,17125,5.0,71784.5,-2.83,-3.63,-3.67,0,*5D
1513030094.42,17126,5.0,71854.5,-2.85,-3.67,-3.87,0,*52
1513030095.69,17127,5.0,71894.3,-2.85,-3.67,-3.67,0,*5D
1513030096.94,17128,5.0,71884.3,-2.85,-3.67,-3.75,0,*51
1513030098.2,17129,5.0,71812.8,-2.85,-3.67,-3.67,0,*53
1513030099.45,17130,5.0,71800.3,-2.85,-3.67,-3.79,0,*54
1513030100.65,17131,5.0,71888.8,-2.83,-3.75,-3.87,0,*51
1513030101.9,17132,5.0,71826.0,-2.85,-3.67,-3.87,0,*57
1513030103.13,17133,5.0,71872.8,-2.83,-3.79,-4.01,0,*56
1513030104.38,17134,5.0,71868.0,-2.85,-3.87,-4.01,0,*56
1513030105.59,17135,5.0,71886.0,-2.83,-3.91,-4.05,0,*52
1513030106.82,17136,5.0,71894.0,-2.85,-3.91,-4.05,0,*57
1513030108.07,17137,5.0,71874.5,-2.85,-4.01,-4.17,0,*5B
1513030109.33,17138,5.0,71840.8,-2.85,-4.01,-4.13,0,*50
1513030110.59,17139,5.0,71874.8,-2.85,-4.01,-4.13,0,*51
1513030111.84,17140,5.0,71888.3,-2.85,-4.01,-4.13,0,*5F
1513030113.1,17141,5.0,71884.0,-2.85,-4.01,-4.13,0,*5E
1513030114.3,17142,5.0,71936.8,-2.87,-4.05,-4.09,0,*50
1513030115.5,17143,5.0,71938.5,-2.87,-3.95,-3.95,0,*5D
1513030116.71,17144,5.0,71926.0,-2.87,-3.83,-3.91,0,*59
1513030117.96,17145,5.0,71970.0,-2.85,-3.75,-3.67,0,*5A
1513030119.23,17146,5.0,71896.5,-2.85,-3.67,-3.67,0,*5A
1513030120.47,17147,5.0,71816.0,-2.87,-3.71,-3.63,0,*5A
1513030121.71,17148,5.0,71864.0,-2.87,-3.67,-3.67,0,*56
1513030122.95,17149,5.0,71758.5,-2.87,-3.67,-3.67,0,*57
1513030124.22,17150,5.0,71792.3,-2.85,-3.67,-3.67,0,*5D
1513030125.45,17151,5.0,71802.0,-2.85,-3.75,-3.87,0,*51
1513030126.67,17152,5.0,71770.8,-2.85,-3.87,-3.79,0,*5E
1513030127.91,17153,5.0,71848.5,-2.85,-3.75,-3.79,0,*52
1513030129.14,17154,5.0,71820.3,-2.85,-3.75,-3.75,0,*59